Location: ???????
(55.4362°N, 38.1183°E)
Time: 03:50:53
(UTC+00:00)

Cosmos 1703 - Pass Details

Date: 17 June 2021
Orbit: 522 x 539 km, 82.5° (Epoch: 26 July)

Event Time Altitude Azimuth Distance (km) Brightness Sun altitude
Exits shadow 21:04:39 16° 182° (S) 1,443 4.8 -11.0°
Maximum altitude 21:07:43 73° 99° (E) 568 3.3 -11.0°
Drops below altitude 10° 21:11:42 10° 15° (NNE) 1,813 7.2 -11.1°
Sets 21:13:52 0° 14° (NNE) 2,712 8.5 -11.1°
